K7PB Weather Reports


time (UTC)temp
F
wind
direction
speed
knots
gust
knots
rain 1hr
in
rain 24hr
in
rain mn
in
humidity
%
barometer
mb
20260505040019 59 0.0 0.0 0.00 0.00 0.00 49 999.5
20260505034506 59 0.0 0.0 0.00 0.00 0.00 48 999.3
20260505033002 60 0.0 0.0 0.00 0.00 0.00 46 998.9
20260505031557 60 0.0 0.0 0.00 0.00 0.00 46 998.5
20260505030110 60 0.0 0.0 0.00 0.00 0.00 47 998.5
20260505024551 62 0.0 0.0 0.00 0.00 0.00 43 998.4
20260505023044 63 0.0 0.0 0.00 0.00 0.00 40 998.2
20260505021540 64 36 0.0 1.7 0.00 0.00 0.00 40 998.1
20260505020041 65 36 0.0 2.6 0.00 0.00 0.00 38 998.0
20260505014559 65 41 1.7 7.0 0.00 0.00 0.00 37 997.9
20260505013048 65 38 1.7 7.8 0.00 0.00 0.00 38 997.9
20260505011541 65 51 3.5 9.6 0.00 0.00 0.00 38 997.9
20260505010043 65 31 4.3 8.7 0.00 0.00 0.00 38 998.0
20260505004546 66 45 2.6 10.4 0.00 0.00 0.00 37 998.1
20260505003051 67 5 1.7 7.0 0.00 0.00 0.00 35 998.2
20260505001533 68 76 1.7 11.3 0.00 0.00 0.00 32 998.3
20260505000035 69 57 3.5 15.6 0.00 0.00 0.00 32 998.4
20260504234532 69 53 6.1 15.6 0.00 0.00 0.00 35 998.6
20260504233035 68 61 5.2 12.2 0.00 0.00 0.00 37 999.0
20260504231531 65 84 4.3 11.3 0.00 0.00 0.00 41 999.0
20260504230031 63 80 2.6 6.1 0.00 0.00 0.00 44 999.1
20260504224530 64 157 2.6 6.1 0.00 0.00 0.00 43 999.2
20260504223037 63 137 2.6 9.6 0.00 0.00 0.00 44 998.9
20260504221528 65 148 4.3 16.5 0.00 0.00 0.00 42 998.7
20260504220031 69 190 4.3 9.6 0.00 0.00 0.00 32 998.4
20260504214527 71 150 1.7 5.2 0.00 0.00 0.00 27 998.2
20260504213029 72 264 1.7 5.2 0.00 0.00 0.00 24 998.1
20260504211534 73 312 0.0 6.1 0.00 0.00 0.00 24 998.2
20260504210024 74 223 1.7 6.1 0.00 0.00 0.00 26 998.3
20260504204522 76 24 0.0 2.6 0.00 0.00 0.00 23 998.5
20260504203020 74 30 0.9 3.5 0.00 0.00 0.00 24 998.5
20260504201518 75 277 0.0 4.3 0.00 0.00 0.00 24 998.7
20260504200021 74 257 0.0 6.1 0.00 0.00 0.00 26 998.9
20260504194517 76 296 0.0 9.6 0.00 0.00 0.00 24 999.0
20260504193018 78 9 0.9 7.8 0.00 0.00 0.00 22 999.1
20260504191513 78 251 0.9 5.2 0.00 0.00 0.00 22 999.3
20260504190010 78 293 0.0 7.8 0.00 0.00 0.00 21 999.5
20260504184508 77 279 0.9 6.1 0.00 0.00 0.00 25 999.6
20260504183009 76 199 2.6 6.1 0.00 0.00 0.00 26 999.7
20260504181504 75 39 0.9 6.1 0.00 0.00 0.00 25 1000.1
20260504180101 75 196 0.9 7.0 0.00 0.00 0.00 26 1000.3
20260504174559 74 312 0.9 6.1 0.00 0.00 0.00 27 1000.4
20260504173058 74 126 0.9 5.2 0.00 0.00 0.00 29 1000.5
20260504171553 73 207 0.0 4.3 0.00 0.00 0.00 28 1000.7
20260504081545 54 0.0 0.0 0.00 0.00 0.00 37 1001.7
20260504044544 59 0.0 0.0 0.00 0.00 0.00 36 1001.8
20260504043043 60 0.0 0.0 0.00 0.00 0.00 34 1001.9
20260504041536 61 0.0 0.0 0.00 0.00 0.00 31 1001.9